contact:dominique.lefevre@mio.osupytheas.fr, maurice.libes@osupytheas.fr, didier.mallarino@osupytheas.fr
Project:EMSO http://www.emso-fr.org/EMSO-France
Depth: 2436.0 m
Title:EMSO Ligure Ouest : Data MII capteur MICROCAT
DateTime_Computer,Latitude,Longitude,Temperature,Conductivity,Pressure,DateTime_Instrument
DateTime_Computer,Latitude,Longitude,degC,S m-1,dbar,DateTime_Instrument
2023-05-31T00:02:15Z,42.805,6.029,13.3043,4.60152,2470.656,2023-5-31T02:04:27Z
2023-05-31T00:05:18Z,42.805,6.029,13.3031,4.60144,2470.67,2023-5-31T02:07:30Z
2023-05-31T00:08:21Z,42.805,6.029,13.3035,4.60146,2470.67,2023-5-31T02:10:34Z
2023-05-31T00:11:24Z,42.805,6.029,13.3031,4.60122,2470.646,2023-5-31T02:13:37Z
2023-05-31T00:14:27Z,42.805,6.029,13.3031,4.60109,2470.67,2023-5-31T02:16:40Z
2023-05-31T00:17:30Z,42.805,6.029,13.3040,4.60145,2470.693,2023-5-31T02:19:43Z
2023-05-31T00:20:34Z,42.805,6.029,13.3046,4.60150,2470.693,2023-5-31T02:22:46Z
2023-05-31T00:23:37Z,42.805,6.029,13.3038,4.60150,2470.693,2023-5-31T02:25:49Z
2023-05-31T00:26:40Z,42.805,6.029,13.3036,4.60130,2470.707,2023-5-31T02:28:52Z
2023-05-31T00:29:43Z,42.805,6.029,13.3032,4.60130,2470.684,2023-5-31T02:31:55Z
2023-05-31T00:32:46Z,42.805,6.029,13.3051,4.60144,2470.67,2023-5-31T02:34:58Z
2023-05-31T00:35:49Z,42.805,6.029,13.3041,4.60141,2470.679,2023-5-31T02:38:01Z
2023-05-31T00:38:52Z,42.805,6.029,13.3045,4.60158,2470.693,2023-5-31T02:41:04Z
2023-05-31T00:41:55Z,42.805,6.029,13.3040,4.60177,2470.684,2023-5-31T02:44:07Z
2023-05-31T00:44:58Z,42.805,6.029,13.3046,4.60167,2470.693,2023-5-31T02:47:11Z
2023-05-31T00:48:01Z,42.805,6.029,13.3041,4.60150,2470.67,2023-5-31T02:50:14Z
2023-05-31T00:51:04Z,42.805,6.029,13.3045,4.60137,2470.684,2023-5-31T02:53:17Z
2023-05-31T00:54:07Z,42.805,6.029,13.3040,4.60144,2470.707,2023-5-31T02:56:20Z
2023-05-31T00:57:10Z,42.805,6.029,13.3055,4.60161,2470.693,2023-5-31T02:59:23Z
2023-05-31T01:00:14Z,42.805,6.029,13.3045,4.60152,2470.73,2023-5-31T03:02:26Z
2023-05-31T01:03:17Z,42.805,6.029,13.3036,4.60160,2470.684,2023-5-31T03:05:29Z
2023-05-31T01:06:20Z,42.805,6.029,13.3042,4.60157,2470.73,2023-5-31T03:08:32Z
2023-05-31T01:09:23Z,42.805,6.029,13.3042,4.60156,2470.693,2023-5-31T03:11:35Z
2023-05-31T01:12:26Z,42.805,6.029,13.3046,4.60123,2470.693,2023-5-31T03:14:38Z
2023-05-31T01:15:29Z,42.805,6.029,13.3044,4.60145,2470.693,2023-5-31T03:17:41Z
2023-05-31T01:18:32Z,42.805,6.029,13.3035,4.60165,2470.717,2023-5-31T03:20:44Z
2023-05-31T01:21:35Z,42.805,6.029,13.3056,4.60152,2470.693,2023-5-31T03:23:48Z
2023-05-31T01:24:38Z,42.805,6.029,13.3040,4.60165,2470.717,2023-5-31T03:26:51Z
2023-05-31T01:27:41Z,42.805,6.029,13.3048,4.60155,2470.74,2023-5-31T03:29:54Z
2023-05-31T01:30:44Z,42.805,6.029,13.3046,4.60146,2470.73,2023-5-31T03:32:57Z
2023-05-31T01:33:47Z,42.805,6.029,13.3036,4.60146,2470.707,2023-5-31T03:36:00Z
2023-05-31T01:36:51Z,42.805,6.029,13.3039,4.60122,2470.717,2023-5-31T03:39:03Z
2023-05-31T01:39:54Z,42.805,6.029,13.3048,4.60138,2470.73,2023-5-31T03:42:06Z
2023-05-31T01:42:57Z,42.805,6.029,13.3048,4.60135,2470.693,2023-5-31T03:45:09Z
2023-05-31T01:46:00Z,42.805,6.029,13.3041,4.60135,2470.754,2023-5-31T03:48:12Z
2023-05-31T01:49:03Z,42.805,6.029,13.3047,4.60133,2470.763,2023-5-31T03:51:15Z
2023-05-31T01:52:06Z,42.805,6.029,13.3035,4.60152,2470.74,2023-5-31T03:54:18Z
2023-05-31T01:55:09Z,42.805,6.029,13.3045,4.60156,2470.754,2023-5-31T03:57:21Z
2023-05-31T01:58:12Z,42.805,6.029,13.3050,4.60149,2470.754,2023-5-31T04:00:25Z
2023-05-31T02:01:15Z,42.805,6.029,13.3048,4.60151,2470.777,2023-5-31T04:03:28Z
2023-05-31T02:04:18Z,42.805,6.029,13.3046,4.60140,2470.763,2023-5-31T04:06:31Z
2023-05-31T02:07:21Z,42.805,6.029,13.3041,4.60138,2470.717,2023-5-31T04:09:34Z
2023-05-31T02:10:24Z,42.805,6.029,13.3046,4.60144,2470.717,2023-5-31T04:12:37Z
2023-05-31T02:13:27Z,42.805,6.029,13.3038,4.60131,2470.74,2023-5-31T04:15:40Z
2023-05-31T02:16:31Z,42.805,6.029,13.3043,4.60121,2470.777,2023-5-31T04:18:43Z
2023-05-31T02:19:34Z,42.805,6.029,13.3041,4.60114,2470.754,2023-5-31T04:21:46Z
2023-05-31T02:22:37Z,42.805,6.029,13.3042,4.60122,2470.754,2023-5-31T04:24:49Z
2023-05-31T02:25:40Z,42.805,6.029,13.3043,4.60135,2470.777,2023-5-31T04:27:52Z
2023-05-31T02:28:43Z,42.805,6.029,13.3036,4.60156,2470.74,2023-5-31T04:30:55Z
2023-05-31T02:31:46Z,42.805,6.029,13.3051,4.60157,2470.787,2023-5-31T04:33:58Z
2023-05-31T02:34:49Z,42.805,6.029,13.3038,4.60162,2470.763,2023-5-31T04:37:01Z
2023-05-31T02:37:52Z,42.805,6.029,13.3055,4.60140,2470.763,2023-5-31T04:40:05Z
2023-05-31T02:40:55Z,42.805,6.029,13.3054,4.60141,2470.754,2023-5-31T04:43:08Z
2023-05-31T02:43:58Z,42.805,6.029,13.3043,4.60131,2470.763,2023-5-31T04:46:11Z
2023-05-31T02:47:01Z,42.805,6.029,13.3054,4.60147,2470.777,2023-5-31T04:49:14Z
2023-05-31T02:50:04Z,42.805,6.029,13.3033,4.60142,2470.763,2023-5-31T04:52:17Z
2023-05-31T02:53:07Z,42.805,6.029,13.3048,4.60152,2470.763,2023-5-31T04:55:20Z
2023-05-31T02:56:11Z,42.805,6.029,13.3048,4.60160,2470.787,2023-5-31T04:58:23Z
2023-05-31T02:59:14Z,42.805,6.029,13.3036,4.60114,2470.81,2023-5-31T05:01:26Z
2023-05-31T03:02:17Z,42.805,6.029,13.3027,4.60105,2470.763,2023-5-31T05:04:29Z
2023-05-31T03:05:20Z,42.805,6.029,13.3039,4.60127,2470.763,2023-5-31T05:07:32Z
2023-05-31T03:08:23Z,42.805,6.029,13.3036,4.60139,2470.763,2023-5-31T05:10:35Z
2023-05-31T03:11:26Z,42.805,6.029,13.3048,4.60153,2470.754,2023-5-31T05:13:38Z
2023-05-31T03:14:29Z,42.805,6.029,13.3037,4.60149,2470.777,2023-5-31T05:16:41Z
2023-05-31T03:17:32Z,42.805,6.029,13.3048,4.60134,2470.763,2023-5-31T05:19:45Z
2023-05-31T03:20:35Z,42.805,6.029,13.3031,4.60125,2470.8,2023-5-31T05:22:48Z
2023-05-31T03:23:38Z,42.805,6.029,13.3041,4.60149,2470.754,2023-5-31T05:25:51Z
2023-05-31T03:26:41Z,42.805,6.029,13.3034,4.60109,2470.777,2023-5-31T05:28:54Z
2023-05-31T03:29:44Z,42.805,6.029,13.3039,4.60132,2470.777,2023-5-31T05:31:57Z
2023-05-31T03:32:48Z,42.805,6.029,13.3032,4.60122,2470.763,2023-5-31T05:35:00Z
2023-05-31T03:35:51Z,42.805,6.029,13.3041,4.60142,2470.8,2023-5-31T05:38:03Z
2023-05-31T03:38:54Z,42.805,6.029,13.3032,4.60127,2470.8,2023-5-31T05:41:06Z
2023-05-31T03:41:57Z,42.805,6.029,13.3034,4.60102,2470.8,2023-5-31T05:44:09Z
2023-05-31T03:45:00Z,42.805,6.029,13.3027,4.60101,2470.74,2023-5-31T05:47:12Z
2023-05-31T03:48:03Z,42.805,6.029,13.3029,4.60103,2470.754,2023-5-31T05:50:15Z
2023-05-31T03:51:06Z,42.805,6.029,13.3040,4.60127,2470.763,2023-5-31T05:53:18Z
2023-05-31T03:54:09Z,42.805,6.029,13.3037,4.60127,2470.777,2023-5-31T05:56:22Z
2023-05-31T03:57:12Z,42.805,6.029,13.3029,4.60110,2470.74,2023-5-31T05:59:25Z
2023-05-31T04:00:15Z,42.805,6.029,13.3034,4.60137,2470.824,2023-5-31T06:02:28Z
2023-05-31T04:03:18Z,42.805,6.029,13.3041,4.60106,2470.763,2023-5-31T06:05:31Z
2023-05-31T04:06:21Z,42.805,6.029,13.3035,4.60102,2470.824,2023-5-31T06:08:34Z
2023-05-31T04:09:24Z,42.805,6.029,13.3036,4.60102,2470.787,2023-5-31T06:11:37Z
2023-05-31T04:12:28Z,42.805,6.029,13.3029,4.60104,2470.74,2023-5-31T06:14:40Z
2023-05-31T04:15:31Z,42.805,6.029,13.3029,4.60124,2470.8,2023-5-31T06:17:43Z
2023-05-31T04:18:34Z,42.805,6.029,13.3036,4.60111,2470.763,2023-5-31T06:20:46Z
2023-05-31T04:21:37Z,42.805,6.029,13.3026,4.60101,2470.777,2023-5-31T06:23:49Z
2023-05-31T04:24:40Z,42.805,6.029,13.3032,4.60133,2470.787,2023-5-31T06:26:52Z
2023-05-31T04:27:43Z,42.805,6.029,13.3026,4.60112,2470.75,2023-5-31T06:29:55Z
2023-05-31T04:30:46Z,42.805,6.029,13.3029,4.60113,2470.787,2023-5-31T06:32:58Z
2023-05-31T04:33:49Z,42.805,6.029,13.3046,4.60115,2470.763,2023-5-31T06:36:02Z
2023-05-31T04:36:52Z,42.805,6.029,13.3034,4.60123,2470.777,2023-5-31T06:39:05Z
2023-05-31T04:39:55Z,42.805,6.029,13.3030,4.60119,2470.8,2023-5-31T06:42:08Z
2023-05-31T04:42:58Z,42.805,6.029,13.3029,4.60119,2470.8,2023-5-31T06:45:11Z
2023-05-31T04:46:01Z,42.805,6.029,13.3038,4.60132,2470.754,2023-5-31T06:48:14Z
2023-05-31T04:49:05Z,42.805,6.029,13.3041,4.60134,2470.777,2023-5-31T06:51:17Z
2023-05-31T04:52:08Z,42.805,6.029,13.3029,4.60117,2470.8,2023-5-31T06:54:20Z
2023-05-31T04:55:11Z,42.805,6.029,13.3041,4.60127,2470.777,2023-5-31T06:57:23Z
2023-05-31T04:58:14Z,42.805,6.029,13.3035,4.60103,2470.763,2023-5-31T07:00:26Z
2023-05-31T05:01:17Z,42.805,6.029,13.3029,4.60105,2470.777,2023-5-31T07:03:29Z
2023-05-31T05:04:20Z,42.805,6.029,13.3034,4.60104,2470.763,2023-5-31T07:06:32Z
2023-05-31T05:07:23Z,42.805,6.029,13.3027,4.60123,2470.763,2023-5-31T07:09:35Z
2023-05-31T05:10:26Z,42.805,6.029,13.3039,4.60125,2470.777,2023-5-31T07:12:39Z
2023-05-31T05:13:29Z,42.805,6.029,13.3034,4.60117,2470.8,2023-5-31T07:15:42Z
2023-05-31T05:16:32Z,42.805,6.029,13.3041,4.60114,2470.763,2023-5-31T07:18:45Z
2023-05-31T05:19:35Z,42.805,6.029,13.3031,4.60105,2470.8,2023-5-31T07:21:48Z
2023-05-31T05:22:38Z,42.805,6.029,13.3040,4.60116,2470.8,2023-5-31T07:24:51Z
2023-05-31T05:25:42Z,42.805,6.029,13.3037,4.60104,2470.763,2023-5-31T07:27:54Z
2023-05-31T05:28:45Z,42.805,6.029,13.3034,4.60114,2470.787,2023-5-31T07:30:57Z
2023-05-31T05:31:48Z,42.805,6.029,13.3034,4.60111,2470.777,2023-5-31T07:34:00Z
2023-05-31T05:34:51Z,42.805,6.029,13.3029,4.60097,2470.763,2023-5-31T07:37:03Z
2023-05-31T05:37:54Z,42.805,6.029,13.3032,4.60110,2470.787,2023-5-31T07:40:06Z
2023-05-31T05:40:57Z,42.805,6.029,13.3032,4.60126,2470.74,2023-5-31T07:43:09Z
2023-05-31T05:44:00Z,42.805,6.029,13.3033,4.60112,2470.763,2023-5-31T07:46:12Z
2023-05-31T05:47:03Z,42.805,6.029,13.3028,4.60107,2470.763,2023-5-31T07:49:16Z
2023-05-31T05:50:06Z,42.805,6.029,13.3034,4.60124,2470.787,2023-5-31T07:52:19Z
2023-05-31T05:53:09Z,42.805,6.029,13.3039,4.60111,2470.763,2023-5-31T07:55:22Z
2023-05-31T05:56:12Z,42.805,6.029,13.3041,4.60125,2470.763,2023-5-31T07:58:25Z
2023-05-31T05:59:15Z,42.805,6.029,13.3046,4.60132,2470.787,2023-5-31T08:01:28Z
2023-05-31T06:02:19Z,42.805,6.029,13.3028,4.60104,2470.763,2023-5-31T08:04:31Z
2023-05-31T06:05:22Z,42.805,6.029,13.3031,4.60104,2470.777,2023-5-31T08:07:34Z
2023-05-31T06:08:25Z,42.805,6.029,13.3027,4.60100,2470.763,2023-5-31T08:10:37Z
2023-05-31T06:11:28Z,42.805,6.029,13.3027,4.60117,2470.777,2023-5-31T08:13:40Z
2023-05-31T06:14:31Z,42.805,6.029,13.3039,4.60115,2470.717,2023-5-31T08:16:43Z
2023-05-31T06:17:34Z,42.805,6.029,13.3036,4.60119,2470.777,2023-5-31T08:19:46Z
2023-05-31T06:20:37Z,42.805,6.029,13.3033,4.60114,2470.74,2023-5-31T08:22:49Z
2023-05-31T06:23:40Z,42.805,6.029,13.3026,4.60106,2470.763,2023-5-31T08:25:53Z
2023-05-31T06:26:43Z,42.805,6.029,13.3034,4.60105,2470.73,2023-5-31T08:28:56Z
2023-05-31T06:29:46Z,42.805,6.029,13.3034,4.60132,2470.75,2023-5-31T08:31:59Z
2023-05-31T06:32:49Z,42.805,6.029,13.3046,4.60133,2470.74,2023-5-31T08:35:02Z
2023-05-31T06:35:52Z,42.805,6.029,13.3034,4.60105,2470.717,2023-5-31T08:38:05Z
2023-05-31T06:38:55Z,42.805,6.029,13.3041,4.60110,2470.754,2023-5-31T08:41:08Z
2023-05-31T06:41:59Z,42.805,6.029,13.3031,4.60108,2470.763,2023-5-31T08:44:11Z
2023-05-31T06:45:02Z,42.805,6.029,13.3031,4.60104,2470.74,2023-5-31T08:47:14Z
2023-05-31T06:48:05Z,42.805,6.029,13.3031,4.60099,2470.717,2023-5-31T08:50:17Z
2023-05-31T06:51:08Z,42.805,6.029,13.3036,4.60120,2470.74,2023-5-31T08:53:20Z
2023-05-31T06:54:11Z,42.805,6.029,13.3026,4.60120,2470.717,2023-5-31T08:56:23Z
2023-05-31T06:57:14Z,42.805,6.029,13.3049,4.60131,2470.754,2023-5-31T08:59:26Z
2023-05-31T07:00:17Z,42.805,6.029,13.3033,4.60125,2470.754,2023-5-31T09:02:29Z
2023-05-31T07:03:20Z,42.805,6.029,13.3030,4.60110,2470.74,2023-5-31T09:05:33Z
2023-05-31T07:06:23Z,42.805,6.029,13.3034,4.60112,2470.693,2023-5-31T09:08:36Z
2023-05-31T07:09:26Z,42.805,6.029,13.3041,4.60143,2470.777,2023-5-31T09:11:39Z
2023-05-31T07:12:29Z,42.805,6.029,13.3031,4.60122,2470.717,2023-5-31T09:14:42Z
2023-05-31T07:15:32Z,42.805,6.029,13.3033,4.60121,2470.73,2023-5-31T09:17:45Z
2023-05-31T07:18:36Z,42.805,6.029,13.3031,4.60121,2470.707,2023-5-31T09:20:48Z
2023-05-31T07:21:39Z,42.805,6.029,13.3041,4.60109,2470.73,2023-5-31T09:23:51Z
2023-05-31T07:24:42Z,42.805,6.029,13.3039,4.60103,2470.73,2023-5-31T09:26:54Z
2023-05-31T07:27:45Z,42.805,6.029,13.3041,4.60129,2470.693,2023-5-31T09:29:57Z
2023-05-31T07:30:48Z,42.805,6.029,13.3036,4.60119,2470.684,2023-5-31T09:33:00Z
2023-05-31T07:33:51Z,42.805,6.029,13.3042,4.60125,2470.73,2023-5-31T09:36:03Z
2023-05-31T07:36:54Z,42.805,6.029,13.3036,4.60116,2470.73,2023-5-31T09:39:06Z
2023-05-31T07:39:57Z,42.805,6.029,13.3056,4.60134,2470.717,2023-5-31T09:42:10Z
2023-05-31T07:43:00Z,42.805,6.029,13.3026,4.60116,2470.693,2023-5-31T09:45:13Z
2023-05-31T07:46:03Z,42.805,6.029,13.3030,4.60116,2470.693,2023-5-31T09:48:16Z
2023-05-31T07:49:06Z,42.805,6.029,13.3038,4.60144,2470.73,2023-5-31T09:51:19Z
2023-05-31T07:52:09Z,42.805,6.029,13.3043,4.60115,2470.67,2023-5-31T09:54:22Z
2023-05-31T07:55:12Z,42.805,6.029,13.3038,4.60126,2470.717,2023-5-31T09:57:25Z
2023-05-31T07:58:16Z,42.805,6.029,13.3032,4.60119,2470.707,2023-5-31T10:00:28Z
2023-05-31T08:01:19Z,42.805,6.029,13.3039,4.60126,2470.67,2023-5-31T10:03:31Z
2023-05-31T08:04:22Z,42.805,6.029,13.3034,4.60123,2470.656,2023-5-31T10:06:34Z
2023-05-31T08:07:25Z,42.805,6.029,13.3034,4.60130,2470.693,2023-5-31T10:09:37Z
2023-05-31T08:10:28Z,42.805,6.029,13.3038,4.60122,2470.707,2023-5-31T10:12:40Z
2023-05-31T08:13:31Z,42.805,6.029,13.3027,4.60110,2470.707,2023-5-31T10:15:43Z
2023-05-31T08:16:34Z,42.805,6.029,13.3030,4.60131,2470.67,2023-5-31T10:18:47Z
2023-05-31T08:19:37Z,42.805,6.029,13.3048,4.60101,2470.67,2023-5-31T10:21:50Z
2023-05-31T08:22:40Z,42.805,6.029,13.3036,4.60109,2470.684,2023-5-31T10:24:53Z
2023-05-31T08:25:43Z,42.805,6.029,13.3050,4.60140,2470.707,2023-5-31T10:27:56Z
2023-05-31T08:28:46Z,42.805,6.029,13.3050,4.60132,2470.67,2023-5-31T10:30:59Z
2023-05-31T08:31:50Z,42.805,6.029,13.3038,4.60128,2470.707,2023-5-31T10:34:02Z
2023-05-31T08:34:53Z,42.805,6.029,13.3033,4.60123,2470.67,2023-5-31T10:37:05Z
2023-05-31T08:37:56Z,42.805,6.029,13.3038,4.60122,2470.67,2023-5-31T10:40:08Z
2023-05-31T08:40:59Z,42.805,6.029,13.3066,4.60119,2470.67,2023-5-31T10:43:11Z
2023-05-31T08:44:02Z,42.805,6.029,13.3041,4.60123,2470.661,2023-5-31T10:46:14Z
2023-05-31T08:47:05Z,42.805,6.029,13.3035,4.60133,2470.67,2023-5-31T10:49:17Z
2023-05-31T08:50:08Z,42.805,6.029,13.3039,4.60112,2470.707,2023-5-31T10:52:20Z
2023-05-31T08:53:11Z,42.805,6.029,13.3036,4.60117,2470.637,2023-5-31T10:55:24Z
2023-05-31T08:56:14Z,42.805,6.029,13.3030,4.60117,2470.67,2023-5-31T10:58:27Z
2023-05-31T08:59:17Z,42.805,6.029,13.3036,4.60122,2470.684,2023-5-31T11:01:30Z
2023-05-31T09:02:20Z,42.805,6.029,13.3034,4.60109,2470.646,2023-5-31T11:04:33Z
2023-05-31T09:05:23Z,42.805,6.029,13.3038,4.60132,2470.646,2023-5-31T11:07:36Z
2023-05-31T09:08:27Z,42.805,6.029,13.3033,4.60140,2470.624,2023-5-31T11:10:39Z
2023-05-31T09:11:30Z,42.805,6.029,13.3048,4.60123,2470.646,2023-5-31T11:13:42Z
2023-05-31T09:14:33Z,42.805,6.029,13.3043,4.60110,2470.6,2023-5-31T11:16:45Z
2023-05-31T09:17:36Z,42.805,6.029,13.3045,4.60144,2470.624,2023-5-31T11:19:48Z
2023-05-31T09:20:39Z,42.805,6.029,13.3039,4.60143,2470.624,2023-5-31T11:22:51Z
2023-05-31T09:23:42Z,42.805,6.029,13.3052,4.60149,2470.646,2023-5-31T11:25:54Z
2023-05-31T09:26:45Z,42.805,6.029,13.3036,4.60119,2470.624,2023-5-31T11:28:57Z
2023-05-31T09:29:48Z,42.805,6.029,13.3037,4.60165,2470.637,2023-5-31T11:32:01Z
2023-05-31T09:32:51Z,42.805,6.029,13.3052,4.60119,2470.661,2023-5-31T11:35:04Z
2023-05-31T09:35:54Z,42.805,6.029,13.3034,4.60122,2470.646,2023-5-31T11:38:07Z
2023-05-31T09:38:57Z,42.805,6.029,13.3030,4.60135,2470.661,2023-5-31T11:41:10Z
2023-05-31T09:42:00Z,42.805,6.029,13.3039,4.60142,2470.624,2023-5-31T11:44:13Z
2023-05-31T09:45:04Z,42.805,6.029,13.3058,4.60139,2470.646,2023-5-31T11:47:16Z
2023-05-31T09:48:07Z,42.805,6.029,13.3035,4.60132,2470.661,2023-5-31T11:50:19Z
2023-05-31T09:51:10Z,42.805,6.029,13.3043,4.60145,2470.624,2023-5-31T11:53:22Z
2023-05-31T09:54:13Z,42.805,6.029,13.3069,4.60155,2470.646,2023-5-31T11:56:25Z
2023-05-31T09:57:16Z,42.805,6.029,13.3042,4.60161,2470.637,2023-5-31T11:59:28Z
2023-05-31T10:00:19Z,42.805,6.029,13.3051,4.60128,2470.624,2023-5-31T12:02:31Z
2023-05-31T10:03:22Z,42.805,6.029,13.3054,4.60132,2470.614,2023-5-31T12:05:35Z
2023-05-31T10:06:25Z,42.805,6.029,13.3048,4.60152,2470.624,2023-5-31T12:08:38Z
2023-05-31T10:09:28Z,42.805,6.029,13.3048,4.60127,2470.624,2023-5-31T12:11:41Z
2023-05-31T10:12:31Z,42.805,6.029,13.3041,4.60140,2470.646,2023-5-31T12:14:44Z
2023-05-31T10:15:34Z,42.805,6.029,13.3051,4.60127,2470.624,2023-5-31T12:17:47Z
2023-05-31T10:18:38Z,42.805,6.029,13.3061,4.60140,2470.624,2023-5-31T12:20:50Z
2023-05-31T10:21:41Z,42.805,6.029,13.3058,4.60150,2470.646,2023-5-31T12:23:53Z
2023-05-31T10:24:44Z,42.805,6.029,13.3056,4.60140,2470.6,2023-5-31T12:26:56Z
2023-05-31T10:27:47Z,42.805,6.029,13.3050,4.60152,2470.577,2023-5-31T12:29:59Z
2023-05-31T10:30:50Z,42.805,6.029,13.3050,4.60133,2470.624,2023-5-31T12:33:02Z
2023-05-31T10:33:53Z,42.805,6.029,13.3049,4.60144,2470.637,2023-5-31T12:36:05Z
2023-05-31T10:36:56Z,42.805,6.029,13.3061,4.60130,2470.624,2023-5-31T12:39:08Z
2023-05-31T10:39:59Z,42.805,6.029,13.3054,4.60128,2470.661,2023-5-31T12:42:12Z
2023-05-31T10:43:02Z,42.805,6.029,13.3036,4.60141,2470.661,2023-5-31T12:45:15Z
2023-05-31T10:46:05Z,42.805,6.029,13.3041,4.60101,2470.6,2023-5-31T12:48:18Z
2023-05-31T10:49:08Z,42.805,6.029,13.3030,4.60101,2470.6,2023-5-31T12:51:21Z
2023-05-31T10:52:11Z,42.805,6.029,13.3038,4.60128,2470.637,2023-5-31T12:54:24Z
2023-05-31T10:55:15Z,42.805,6.029,13.3032,4.60101,2470.637,2023-5-31T12:57:27Z
2023-05-31T10:58:18Z,42.805,6.029,13.3034,4.60110,2470.646,2023-5-31T13:00:30Z
2023-05-31T11:01:21Z,42.805,6.029,13.3041,4.60117,2470.646,2023-5-31T13:03:33Z
2023-05-31T11:04:24Z,42.805,6.029,13.3054,4.60128,2470.624,2023-5-31T13:06:36Z
2023-05-31T11:07:27Z,42.805,6.029,13.3044,4.60138,2470.637,2023-5-31T13:09:39Z
2023-05-31T11:10:30Z,42.805,6.029,13.3052,4.60129,2470.6,2023-5-31T13:12:42Z
2023-05-31T11:13:33Z,42.805,6.029,13.3054,4.60154,2470.624,2023-5-31T13:15:46Z
2023-05-31T11:16:36Z,42.805,6.029,13.3053,4.60142,2470.624,2023-5-31T13:18:49Z
2023-05-31T11:19:39Z,42.805,6.029,13.3052,4.60156,2470.624,2023-5-31T13:21:52Z
2023-05-31T11:22:42Z,42.805,6.029,13.3063,4.60155,2470.614,2023-5-31T13:24:55Z
2023-05-31T11:25:45Z,42.805,6.029,13.3059,4.60135,2470.624,2023-5-31T13:27:58Z
2023-05-31T11:28:48Z,42.805,6.029,13.3048,4.60124,2470.637,2023-5-31T13:31:01Z
2023-05-31T11:31:52Z,42.805,6.029,13.3056,4.60114,2470.614,2023-5-31T13:34:04Z
2023-05-31T11:34:55Z,42.805,6.029,13.3078,4.60155,2470.591,2023-5-31T13:37:07Z
2023-05-31T11:37:58Z,42.805,6.029,13.3060,4.60167,2470.637,2023-5-31T13:40:10Z
2023-05-31T11:41:01Z,42.805,6.029,13.3060,4.60154,2470.624,2023-5-31T13:43:13Z
2023-05-31T11:44:04Z,42.805,6.029,13.3045,4.60163,2470.637,2023-5-31T13:46:16Z
2023-05-31T11:47:07Z,42.805,6.029,13.3057,4.60145,2470.624,2023-5-31T13:49:19Z
2023-05-31T11:50:10Z,42.805,6.029,13.3059,4.60117,2470.624,2023-5-31T13:52:23Z
2023-05-31T11:53:13Z,42.805,6.029,13.3045,4.60121,2470.637,2023-5-31T13:55:26Z
2023-05-31T11:56:16Z,42.805,6.029,13.3091,4.60132,2470.614,2023-5-31T13:58:29Z
2023-05-31T11:59:19Z,42.805,6.029,13.3079,4.60141,2470.646,2023-5-31T14:01:32Z
2023-05-31T12:02:22Z,42.805,6.029,13.3063,4.60181,2470.637,2023-5-31T14:04:35Z
2023-05-31T12:05:26Z,42.805,6.029,13.3057,4.60154,2470.624,2023-5-31T14:07:38Z
2023-05-31T12:08:29Z,42.805,6.029,13.3061,4.60150,2470.646,2023-5-31T14:10:41Z
2023-05-31T12:11:32Z,42.805,6.029,13.3054,4.60166,2470.646,2023-5-31T14:13:44Z
2023-05-31T12:14:35Z,42.805,6.029,13.3046,4.60174,2470.646,2023-5-31T14:16:47Z
2023-05-31T12:17:38Z,42.805,6.029,13.3043,4.60140,2470.67,2023-5-31T14:19:50Z
2023-05-31T12:20:41Z,42.805,6.029,13.3038,4.60125,2470.637,2023-5-31T14:22:53Z
2023-05-31T12:23:44Z,42.805,6.029,13.3051,4.60131,2470.646,2023-5-31T14:25:57Z
2023-05-31T12:26:47Z,42.805,6.029,13.3041,4.60140,2470.637,2023-5-31T14:29:00Z
2023-05-31T12:29:50Z,42.805,6.029,13.3061,4.60170,2470.646,2023-5-31T14:32:03Z
2023-05-31T12:32:53Z,42.805,6.029,13.3066,4.60176,2470.637,2023-5-31T14:35:06Z
2023-05-31T12:35:56Z,42.805,6.029,13.3041,4.60168,2470.637,2023-5-31T14:38:09Z
2023-05-31T12:38:59Z,42.805,6.029,13.3067,4.60152,2470.646,2023-5-31T14:41:12Z
2023-05-31T12:42:03Z,42.805,6.029,13.3054,4.60170,2470.646,2023-5-31T14:44:15Z
2023-05-31T12:45:06Z,42.805,6.029,13.3083,4.60161,2470.67,2023-5-31T14:47:18Z
2023-05-31T12:48:09Z,42.805,6.029,13.3071,4.60171,2470.67,2023-5-31T14:50:21Z
2023-05-31T12:51:12Z,42.805,6.029,13.3087,4.60159,2470.637,2023-5-31T14:53:24Z
2023-05-31T12:54:15Z,42.805,6.029,13.3102,4.60135,2470.624,2023-5-31T14:56:27Z
2023-05-31T12:57:18Z,42.805,6.029,13.3076,4.60164,2470.624,2023-5-31T14:59:30Z
2023-05-31T13:00:21Z,42.805,6.029,13.3091,4.60190,2470.661,2023-5-31T15:02:34Z
2023-05-31T13:03:24Z,42.805,6.029,13.3067,4.60153,2470.661,2023-5-31T15:05:37Z
2023-05-31T13:06:27Z,42.805,6.029,13.3041,4.60172,2470.661,2023-5-31T15:08:40Z
2023-05-31T13:09:30Z,42.805,6.029,13.3063,4.60122,2470.646,2023-5-31T15:11:43Z
2023-05-31T13:12:33Z,42.805,6.029,13.3069,4.60162,2470.646,2023-5-31T15:14:46Z
2023-05-31T13:15:37Z,42.805,6.029,13.3082,4.60181,2470.646,2023-5-31T15:17:49Z
2023-05-31T13:18:40Z,42.805,6.029,13.3070,4.60190,2470.67,2023-5-31T15:20:52Z
2023-05-31T13:21:43Z,42.805,6.029,13.3080,4.60194,2470.67,2023-5-31T15:23:55Z
2023-05-31T13:24:46Z,42.805,6.029,13.3089,4.60180,2470.684,2023-5-31T15:26:58Z
2023-05-31T13:27:49Z,42.805,6.029,13.3049,4.60167,2470.684,2023-5-31T15:30:01Z
2023-05-31T13:30:52Z,42.805,6.029,13.3084,4.60179,2470.684,2023-5-31T15:33:04Z
2023-05-31T13:33:55Z,42.805,6.029,13.3092,4.60169,2470.67,2023-5-31T15:36:07Z
2023-05-31T13:36:58Z,42.805,6.029,13.3091,4.60189,2470.693,2023-5-31T15:39:11Z
2023-05-31T13:40:01Z,42.805,6.029,13.3071,4.60253,2470.637,2023-5-31T15:42:14Z
2023-05-31T13:43:04Z,42.805,6.029,13.3104,4.60137,2470.684,2023-5-31T15:45:17Z
2023-05-31T13:46:07Z,42.805,6.029,13.3050,4.60199,2470.661,2023-5-31T15:48:20Z
2023-05-31T13:49:10Z,42.805,6.029,13.3074,4.60167,2470.67,2023-5-31T15:51:23Z
2023-05-31T13:52:14Z,42.805,6.029,13.3061,4.60238,2470.661,2023-5-31T15:54:26Z
2023-05-31T13:55:17Z,42.805,6.029,13.3040,4.60142,2470.67,2023-5-31T15:57:29Z
2023-05-31T13:58:20Z,42.805,6.029,13.3059,4.60125,2470.684,2023-5-31T16:00:32Z
2023-05-31T14:01:23Z,42.805,6.029,13.3034,4.60176,2470.684,2023-5-31T16:03:35Z
2023-05-31T14:04:26Z,42.805,6.029,13.3076,4.60177,2470.656,2023-5-31T16:06:38Z
2023-05-31T14:07:29Z,42.805,6.029,13.3072,4.60157,2470.707,2023-5-31T16:09:41Z
2023-05-31T14:10:32Z,42.805,6.029,13.3080,4.60164,2470.646,2023-5-31T16:12:45Z
2023-05-31T14:13:35Z,42.805,6.029,13.3078,4.60156,2470.693,2023-5-31T16:15:48Z
2023-05-31T14:16:38Z,42.805,6.029,13.3079,4.60176,2470.646,2023-5-31T16:18:51Z
2023-05-31T14:19:41Z,42.805,6.029,13.3083,4.60181,2470.707,2023-5-31T16:21:54Z
2023-05-31T14:22:44Z,42.805,6.029,13.3092,4.60173,2470.693,2023-5-31T16:24:57Z
2023-05-31T14:25:47Z,42.805,6.029,13.3088,4.60147,2470.707,2023-5-31T16:28:00Z
2023-05-31T14:28:51Z,42.805,6.029,13.3096,4.60220,2470.693,2023-5-31T16:31:03Z
2023-05-31T14:31:55Z,42.805,6.029,13.3101,4.60131,2470.73,2023-5-31T16:34:07Z
2023-05-31T14:34:58Z,42.805,6.029,13.3091,4.60156,2470.707,2023-5-31T16:37:10Z
2023-05-31T14:38:01Z,42.805,6.029,13.3095,4.60185,2470.707,2023-5-31T16:40:13Z
2023-05-31T14:41:04Z,42.805,6.029,13.3056,4.60150,2470.717,2023-5-31T16:43:16Z
2023-05-31T14:44:07Z,42.805,6.029,13.3087,4.60166,2470.717,2023-5-31T16:46:19Z
2023-05-31T14:47:10Z,42.805,6.029,13.3075,4.60173,2470.717,2023-5-31T16:49:23Z
2023-05-31T14:50:13Z,42.805,6.029,13.3070,4.60143,2470.67,2023-5-31T16:52:26Z
2023-05-31T14:53:16Z,42.805,6.029,13.3087,4.60142,2470.754,2023-5-31T16:55:29Z
2023-05-31T14:56:19Z,42.805,6.029,13.3076,4.60168,2470.707,2023-5-31T16:58:32Z
2023-05-31T14:59:22Z,42.805,6.029,13.3058,4.60120,2470.693,2023-5-31T17:01:35Z
2023-05-31T15:02:26Z,42.805,6.029,13.3040,4.60152,2470.707,2023-5-31T17:04:38Z
2023-05-31T15:05:29Z,42.805,6.029,13.3068,4.60120,2470.693,2023-5-31T17:07:41Z
2023-05-31T15:08:32Z,42.805,6.029,13.3063,4.60155,2470.717,2023-5-31T17:10:44Z
2023-05-31T15:11:35Z,42.805,6.029,13.3042,4.60181,2470.73,2023-5-31T17:13:47Z
2023-05-31T15:14:38Z,42.805,6.029,13.3062,4.60113,2470.73,2023-5-31T17:16:50Z